Time,TemperatureF,DewpointF,PressureIn,WindDirection,WindDirectionDegrees,WindSpeedMPH,WindSpeedGustMPH,Humidity,HourlyPrecipIn,Conditions,Clouds,dailyrainin,SoftwareType,DateUTC
2013-02-13 00:00:00,30.9,24.0,29.86,WNW,298,1.0,-999.0,76,-99.99,,,0.00,weatherlink.com 1.10,2013-02-13 05:00:00,
2013-02-13 00:15:00,30.8,24.0,29.87,West,271,3.0,-999.0,76,-99.99,,,0.00,weatherlink.com 1.10,2013-02-13 05:15:00,
2013-02-13 00:30:00,30.7,24.0,29.86,WNW,293,2.0,-999.0,75,-99.99,,,0.00,weatherlink.com 1.10,2013-02-13 05:30:00,
2013-02-13 00:45:00,30.2,23.0,29.86,West,267,0.0,-999.0,75,-99.99,,,0.00,weatherlink.com 1.10,2013-02-13 05:45:00,
2013-02-13 01:00:00,29.9,23.0,29.84,WNW,300,3.0,-999.0,74,-99.99,,,0.00,weatherlink.com 1.10,2013-02-13 06:00:00,
2013-02-13 01:15:00,29.5,23.0,29.85,WNW,285,0.0,-999.0,75,-99.99,,,0.00,weatherlink.com 1.10,2013-02-13 06:15:00,
2013-02-13 01:30:00,29.0,23.0,29.85,WSW,238,2.0,-999.0,77,-99.99,,,0.00,weatherlink.com 1.10,2013-02-13 06:30:00,
2013-02-13 01:45:00,29.1,22.0,29.85,West,273,2.0,-999.0,76,-99.99,,,0.00,weatherlink.com 1.10,2013-02-13 06:45:00,
2013-02-13 02:00:00,29.0,23.0,29.86,WNW,288,2.0,-999.0,77,-99.99,,,0.00,weatherlink.com 1.10,2013-02-13 07:00:00,
2013-02-13 02:15:00,28.9,23.0,29.86,West,267,4.0,-999.0,77,-99.99,,,0.00,weatherlink.com 1.10,2013-02-13 07:15:00,
2013-02-13 02:30:00,29.0,23.0,29.86,WNW,289,4.0,-999.0,78,-99.99,,,0.00,weatherlink.com 1.10,2013-02-13 07:30:00,
2013-02-13 02:45:00,29.0,23.0,29.86,West,281,3.0,-999.0,79,-99.99,,,0.00,weatherlink.com 1.10,2013-02-13 07:45:00,
2013-02-13 03:00:00,29.2,23.0,29.86,WNW,286,3.0,-999.0,79,-99.99,,,0.00,weatherlink.com 1.10,2013-02-13 08:00:00,
2013-02-13 03:16:00,29.3,24.0,29.86,West,275,5.0,-999.0,79,-99.99,,,0.00,weatherlink.com 1.10,2013-02-13 08:16:00,
2013-02-13 03:31:00,29.3,24.0,29.87,West,280,1.0,-999.0,79,-99.99,,,0.00,weatherlink.com 1.10,2013-02-13 08:31:00,
2013-02-13 03:46:00,29.4,24.0,29.87,NW,306,6.0,-999.0,79,-99.99,,,0.00,weatherlink.com 1.10,2013-02-13 08:46:00,
2013-02-13 04:01:00,29.3,24.0,29.87,WNW,285,3.0,-999.0,79,-99.99,,,0.00,weatherlink.com 1.10,2013-02-13 09:01:00,
2013-02-13 04:16:00,29.2,23.0,29.87,West,281,1.0,-999.0,79,-99.99,,,0.00,weatherlink.com 1.10,2013-02-13 09:16:00,
2013-02-13 04:31:00,29.1,24.0,29.87,WNW,294,2.0,-999.0,80,-99.99,,,0.00,weatherlink.com 1.10,2013-02-13 09:31:00,
2013-02-13 04:46:00,29.1,23.0,29.88,WNW,292,1.0,-999.0,79,-99.99,,,0.00,weatherlink.com 1.10,2013-02-13 09:46:00,
2013-02-13 05:01:00,29.0,23.0,29.88,WNW,294,2.0,-999.0,79,-99.99,,,0.00,weatherlink.com 1.10,2013-02-13 10:01:00,
2013-02-13 05:16:00,29.0,23.0,29.88,WSW,256,4.0,-999.0,79,-99.99,,,0.00,weatherlink.com 1.10,2013-02-13 10:16:00,
2013-02-13 05:31:00,28.9,23.0,29.87,West,262,2.0,-999.0,80,-99.99,,,0.00,weatherlink.com 1.10,2013-02-13 10:31:00,
2013-02-13 05:46:00,28.9,23.0,29.86,West,261,3.0,-999.0,79,-99.99,,,0.00,weatherlink.com 1.10,2013-02-13 10:46:00,
2013-02-13 06:01:00,28.9,23.0,29.86,NW,310,1.0,-999.0,79,-99.99,,,0.00,weatherlink.com 1.10,2013-02-13 11:01:00,
2013-02-13 06:16:00,28.8,23.0,29.86,West,265,3.0,-999.0,79,-99.99,,,0.00,weatherlink.com 1.10,2013-02-13 11:16:00,
2013-02-13 06:31:00,28.8,23.0,29.87,WNW,292,2.0,-999.0,79,-99.99,,,0.00,weatherlink.com 1.10,2013-02-13 11:31:00,
2013-02-13 06:46:00,28.8,23.0,29.86,WNW,292,3.0,-999.0,79,-99.99,,,0.00,weatherlink.com 1.10,2013-02-13 11:46:00,
2013-02-13 07:01:00,28.7,23.0,29.87,WSW,255,0.0,-999.0,79,-99.99,,,0.00,weatherlink.com 1.10,2013-02-13 12:01:00,
2013-02-13 07:16:00,28.7,23.0,29.88,WNW,292,3.0,-999.0,79,-99.99,,,0.00,weatherlink.com 1.10,2013-02-13 12:16:00,
2013-02-13 07:31:00,29.1,23.0,29.87,WNW,293,3.0,-999.0,79,-99.99,,,0.00,weatherlink.com 1.10,2013-02-13 12:31:00,
2013-02-13 07:46:00,29.5,23.0,29.87,WNW,300,1.0,-999.0,78,-99.99,,,0.00,weatherlink.com 1.10,2013-02-13 12:46:00,
2013-02-13 08:01:00,29.7,24.0,29.87,WNW,282,2.0,-999.0,78,-99.99,,,0.00,weatherlink.com 1.10,2013-02-13 13:01:00,
2013-02-13 08:16:00,30.2,24.0,29.87,NW,315,4.0,-999.0,77,-99.99,,,0.00,weatherlink.com 1.10,2013-02-13 13:16:00,
2013-02-13 08:31:00,30.9,24.0,29.87,WNW,286,2.0,-999.0,76,-99.99,,,0.00,weatherlink.com 1.10,2013-02-13 13:31:00,
2013-02-13 08:46:00,30.9,24.0,29.88,NW,311,3.0,-999.0,75,-99.99,,,0.00,weatherlink.com 1.10,2013-02-13 13:46:00,
2013-02-13 09:01:00,31.1,24.0,29.88,NW,318,2.0,-999.0,75,-99.99,,,0.00,weatherlink.com 1.10,2013-02-13 14:01:00,
2013-02-13 09:16:00,31.6,24.0,29.88,NW,306,0.0,-999.0,74,-99.99,,,0.00,weatherlink.com 1.10,2013-02-13 14:16:00,
2013-02-13 09:31:00,31.4,24.0,29.88,West,270,0.0,-999.0,75,-99.99,,,0.00,weatherlink.com 1.10,2013-02-13 14:31:00,
2013-02-13 09:46:00,31.7,25.0,29.87,WNW,286,0.0,-999.0,75,-99.99,,,0.00,weatherlink.com 1.10,2013-02-13 14:46:00,
2013-02-13 10:01:00,32.1,24.0,29.87,NW,308,1.0,-999.0,73,-99.99,,,0.00,weatherlink.com 1.10,2013-02-13 15:01:00,
2013-02-13 10:16:00,32.8,25.0,29.86,NW,313,0.0,-999.0,74,-99.99,,,0.00,weatherlink.com 1.10,2013-02-13 15:16:00,
2013-02-13 10:31:00,33.1,25.0,29.86,NW,304,1.0,-999.0,71,-99.99,,,0.00,weatherlink.com 1.10,2013-02-13 15:31:00,
2013-02-13 10:46:00,33.9,25.0,29.85,NW,325,3.0,-999.0,69,-99.99,,,0.00,weatherlink.com 1.10,2013-02-13 15:46:00,
2013-02-13 11:01:00,33.2,24.0,29.85,NW,325,2.0,-999.0,69,-99.99,,,0.00,weatherlink.com 1.10,2013-02-13 16:01:00,
2013-02-13 11:16:00,34.3,25.0,29.85,West,268,3.0,-999.0,69,-99.99,,,0.00,weatherlink.com 1.10,2013-02-13 16:16:00,
2013-02-13 11:46:00,33.7,25.0,29.85,West,262,3.0,-999.0,70,-99.99,,,0.00,weatherlink.com 1.10,2013-02-13 16:46:00,
2013-02-13 12:01:00,34.5,25.0,29.85,NW,305,0.0,-999.0,67,-99.99,,,0.00,weatherlink.com 1.10,2013-02-13 17:01:00,
2013-02-13 12:16:00,34.8,24.0,29.84,WSW,240,4.0,-999.0,65,-99.99,,,0.00,weatherlink.com 1.10,2013-02-13 17:16:00,
2013-02-13 12:31:00,35.0,24.0,29.84,NW,305,2.0,-999.0,65,-99.99,,,0.00,weatherlink.com 1.10,2013-02-13 17:31:00,
2013-02-13 12:46:00,35.8,25.0,29.83,WNW,284,2.0,-999.0,64,-99.99,,,0.00,weatherlink.com 1.10,2013-02-13 17:46:00,
2013-02-13 13:50:00,36.7,24.0,29.82,WSW,254,4.0,-999.0,60,-99.99,,,0.00,weatherlink.com 1.10,2013-02-13 18:50:00,
2013-02-13 14:01:00,36.6,25.0,29.81,SW,215,3.0,-999.0,62,-99.99,,,0.00,weatherlink.com 1.10,2013-02-13 19:01:00,
2013-02-13 14:17:00,36.9,24.0,29.81,SW,231,3.0,-999.0,61,-99.99,,,0.00,weatherlink.com 1.10,2013-02-13 19:17:00,
2013-02-13 14:32:00,36.8,24.0,29.80,SW,234,3.0,-999.0,60,-99.99,,,0.00,weatherlink.com 1.10,2013-02-13 19:32:00,
2013-02-13 14:46:00,36.7,24.0,29.80,WSW,245,3.0,-999.0,60,-99.99,,,0.00,weatherlink.com 1.10,2013-02-13 19:46:00,
2013-02-13 15:01:00,36.9,24.0,29.80,WNW,302,3.0,-999.0,60,-99.99,,,0.00,weatherlink.com 1.10,2013-02-13 20:01:00,
2013-02-13 15:17:00,37.3,24.0,29.79,WSW,252,2.0,-999.0,58,-99.99,,,0.00,weatherlink.com 1.10,2013-02-13 20:17:00,
2013-02-13 15:31:00,36.6,23.0,29.78,NNW,333,0.0,-999.0,58,-99.99,,,0.00,weatherlink.com 1.10,2013-02-13 20:31:00,
2013-02-13 15:46:00,36.2,24.0,29.77,WSW,251,1.0,-999.0,61,-99.99,,,0.00,weatherlink.com 1.10,2013-02-13 20:46:00,
2013-02-13 16:01:00,36.2,23.0,29.78,WNW,292,0.0,-999.0,59,-99.99,,,0.00,weatherlink.com 1.10,2013-02-13 21:01:00,
2013-02-13 16:17:00,35.8,23.0,29.78,WNW,288,1.0,-999.0,60,-99.99,,,0.00,weatherlink.com 1.10,2013-02-13 21:17:00,
2013-02-13 16:32:00,35.5,24.0,29.78,West,261,0.0,-999.0,62,-99.99,,,0.00,weatherlink.com 1.10,2013-02-13 21:32:00,
2013-02-13 16:47:00,34.7,23.0,29.79,WNW,301,0.0,-999.0,63,-99.99,,,0.00,weatherlink.com 1.10,2013-02-13 21:47:00,
2013-02-13 17:02:00,33.8,23.0,29.78,WNW,301,0.0,-999.0,65,-99.99,,,0.00,weatherlink.com 1.10,2013-02-13 22:02:00,
2013-02-13 17:17:00,32.5,22.0,29.77,WNW,301,0.0,-999.0,66,-99.99,,,0.00,weatherlink.com 1.10,2013-02-13 22:17:00,
2013-02-13 17:32:00,31.2,22.0,29.77,WNW,301,0.0,-999.0,69,-99.99,,,0.00,weatherlink.com 1.10,2013-02-13 22:32:00,
2013-02-13 17:47:00,30.2,23.0,29.77,WNW,301,0.0,-999.0,73,-99.99,,,0.00,weatherlink.com 1.10,2013-02-13 22:47:00,
2013-02-13 18:02:00,29.3,23.0,29.77,WNW,301,0.0,-999.0,78,-99.99,,,0.00,weatherlink.com 1.10,2013-02-13 23:02:00,
2013-02-13 18:17:00,28.5,22.0,29.77,WNW,301,0.0,-999.0,77,-99.99,,,0.00,weatherlink.com 1.10,2013-02-13 23:17:00,
2013-02-13 18:32:00,27.9,22.0,29.77,WNW,301,0.0,-999.0,79,-99.99,,,0.00,weatherlink.com 1.10,2013-02-13 23:32:00,
2013-02-13 18:47:00,27.7,22.0,29.77,WNW,301,0.0,-999.0,80,-99.99,,,0.00,weatherlink.com 1.10,2013-02-13 23:47:00,
2013-02-13 19:02:00,27.4,23.0,29.77,WNW,301,0.0,-999.0,82,-99.99,,,0.00,weatherlink.com 1.10,2013-02-14 00:02:00,
2013-02-13 19:17:00,27.3,23.0,29.77,WNW,301,0.0,-999.0,83,-99.99,,,0.00,weatherlink.com 1.10,2013-02-14 00:17:00,
2013-02-13 19:32:00,27.4,23.0,29.77,WNW,301,0.0,-999.0,83,-99.99,,,0.00,weatherlink.com 1.10,2013-02-14 00:32:00,
2013-02-13 19:47:00,27.6,23.0,29.76,NNW,337,0.0,-999.0,83,-99.99,,,0.00,weatherlink.com 1.10,2013-02-14 00:47:00,
2013-02-13 20:02:00,27.4,23.0,29.77,NNW,337,0.0,-999.0,83,-99.99,,,0.00,weatherlink.com 1.10,2013-02-14 01:02:00,
2013-02-13 20:17:00,27.4,23.0,29.77,NNW,337,0.0,-999.0,84,-99.99,,,0.00,weatherlink.com 1.10,2013-02-14 01:17:00,
2013-02-13 20:32:00,27.6,23.0,29.76,NNW,337,1.0,-999.0,81,-99.99,,,0.00,weatherlink.com 1.10,2013-02-14 01:32:00,
2013-02-13 20:47:00,28.8,22.0,29.76,NE,52,1.0,-999.0,77,-99.99,,,0.00,weatherlink.com 1.10,2013-02-14 01:47:00,
2013-02-13 21:02:00,29.6,22.0,29.76,NE,51,0.0,-999.0,74,-99.99,,,0.00,weatherlink.com 1.10,2013-02-14 02:02:00,
2013-02-13 21:17:00,29.9,22.0,29.77,NE,51,0.0,-999.0,73,-99.99,,,0.00,weatherlink.com 1.10,2013-02-14 02:17:00,
2013-02-13 21:32:00,29.9,23.0,29.76,NE,51,0.0,-999.0,74,-99.99,,,0.00,weatherlink.com 1.10,2013-02-14 02:32:00,
2013-02-13 21:47:00,30.0,22.0,29.76,NNW,347,0.0,-999.0,71,-99.99,,,0.00,weatherlink.com 1.10,2013-02-14 02:47:00,
2013-02-13 22:02:00,30.2,22.0,29.75,North,9,1.0,-999.0,71,-99.99,,,0.00,weatherlink.com 1.10,2013-02-14 03:02:00,
2013-02-13 22:17:00,30.3,22.0,29.75,North,355,0.0,-999.0,71,-99.99,,,0.00,weatherlink.com 1.10,2013-02-14 03:17:00,
2013-02-13 22:32:00,30.2,22.0,29.75,ENE,59,0.0,-999.0,71,-99.99,,,0.00,weatherlink.com 1.10,2013-02-14 03:32:00,
2013-02-13 22:47:00,30.2,22.0,29.75,North,355,0.0,-999.0,72,-99.99,,,0.00,weatherlink.com 1.10,2013-02-14 03:47:00,
2013-02-13 23:02:00,30.2,22.0,29.75,NE,55,0.0,-999.0,71,-99.99,,,0.00,weatherlink.com 1.10,2013-02-14 04:02:00,
2013-02-13 23:17:00,30.1,22.0,29.76,NE,55,0.0,-999.0,71,-99.99,,,0.00,weatherlink.com 1.10,2013-02-14 04:17:00,